Weather History for New Orleans NAS, LA

Change the Weather History Date:

Tuesday, November 26, 2013

  Actual Average Record
Temperature  
Mean Temperature 52 °F -  
Max Temperature 59 °F 66 °F 82 °F (2001)
Min Temperature 44 °F 49 °F 35 °F (2008)
Degree Days  
Heating Degree Days 14    
Growing Degree Days 2 (Base 50)    
Moisture  
Dew Point 46 °F    
Average Humidity 89    
Maximum Humidity 100    
Minimum Humidity 72    
Precipitation  
Precipitation 0.00 in - - ()
Sea Level Pressure  
Sea Level Pressure 29.87 in    
Wind  
Wind Speed 9 mph (NNW)    
Max Wind Speed 16 mph    
Max Gust Speed 37 mph    
Visibility 7 miles    
Events Rain , Thunderstorm    
Averages and records for this station are not official NWS values.
T = Trace of Precipitation, MM = Missing Value Source: NWS Daily Summary

Daily Weather History Graph

Daily Weather History Graph

Search for Another Location

Airport:

Trip Planner

Search our weather history database for the weather conditions in past years. The results will help you decide how hot, cold, wet, or windy it might be!

Date:

Astronomy

Nov. 26, 2013 Rise Set
Actual Time 6:34 AM CST 5:00 PM CST
Civil Twilight 6:08 AM CST 5:26 PM CST
Nautical Twilight 5:39 AM CST 5:55 PM CST
Astronomical Twilight 5:10 AM CST 6:24 PM CST
Moon 12:06 AM CST (11/26) 12:41 PM CST (11/26)
Length of Visible Light 11h 18m
Length of Day
10h 26m
Last Quarter, 41% of the Moon is Illuminated
Nov 26
Last Quarter
Dec 2
New
Dec 9
First Quarter
Dec 17
Full
Dec 25
Last Quarter

Hourly Weather History & Observations

Time (CST) Temp. Windchill Dew Point Humidity Pressure Visibility Wind Dir Wind Speed Gust Speed Precip Events Conditions
12:55 AM 59.0 °F - 59.0 °F 100% 29.80 in 2.5 mi North 4.6 mph - N/A   Overcast
1:03 AM 59.0 °F - 57.2 °F 94% 29.81 in 3.0 mi NW 4.6 mph - N/A   Overcast
1:55 AM 54.0 °F - 54.0 °F 100% 29.81 in 3.0 mi NNW 16.1 mph 27.6 mph N/A Thunderstorm Overcast
1:58 AM 53.6 °F - 53.6 °F 100% 29.79 in 1.8 mi NNW 12.7 mph 27.6 mph N/A Thunderstorm Overcast
2:07 AM 53.6 °F - 53.6 °F 100% 29.79 in 3.0 mi North 12.7 mph 23.0 mph N/A Thunderstorm Overcast
2:26 AM 51.8 °F - - N/A% 29.84 in 2.0 mi NW 15.0 mph 32.2 mph N/A   Overcast
2:55 AM 48.9 °F - - N/A% 29.81 in 10.0 mi North 12.7 mph 25.3 mph N/A   Overcast
3:55 AM 48.0 °F - - N/A% 29.81 in 6.0 mi North 15.0 mph 26.5 mph N/A   Overcast
4:10 AM 48.2 °F - - N/A% 29.80 in 6.0 mi NNE 13.8 mph 24.2 mph N/A   Overcast
4:47 AM 48.2 °F - - N/A% 29.78 in 10.0 mi ESE 11.5 mph 170.3 mph N/A   Mostly Cloudy
4:55 AM 48.9 °F - - N/A% 29.78 in 10.0 mi NE 12.7 mph 36.8 mph N/A   Overcast
5:55 AM 50.0 °F - - N/A% 29.78 in 10.0 mi North 6.9 mph - N/A   Overcast
6:15 AM 51.8 °F - 50.0 °F 94% 29.79 in 6.0 mi NNE 6.9 mph - N/A   Overcast
6:55 AM 51.1 °F - 50.0 °F 96% 29.80 in 10.0 mi Calm Calm - N/A   Overcast
7:55 AM 52.0 °F - 43.3 °F 72% 29.86 in 10.0 mi Variable 6.9 mph 16.1 mph N/A   Overcast
8:55 AM 52.0 °F - 51.1 °F 97% 29.87 in 6.0 mi NW 9.2 mph 16.1 mph N/A Rain Light Rain
9:42 AM 48.2 °F - 44.6 °F 87% 29.89 in 1.5 mi NW 10.4 mph 25.3 mph N/A Rain Rain
9:55 AM 48.9 °F - 46.0 °F 90% 29.90 in 1.5 mi NW 13.8 mph 23.0 mph N/A Rain Rain
10:07 AM 48.2 °F - 44.6 °F 87% 29.89 in 2.0 mi NNW 11.5 mph 26.5 mph N/A Rain Rain
10:32 AM 46.4 °F 41.9 °F 44.6 °F 93% 29.88 in 5.0 mi NNW 9.2 mph 19.6 mph N/A Rain Light Rain
10:45 AM 46.4 °F 41.1 °F 44.6 °F 93% 29.89 in 1.5 mi NNW 11.5 mph 20.7 mph N/A Rain Rain
10:55 AM 48.0 °F - 44.1 °F 86% 29.87 in 3.0 mi North 9.2 mph 19.6 mph N/A Rain Rain
11:41 AM 48.2 °F - 44.6 °F 87% 29.87 in 7.0 mi NNW 9.2 mph 16.1 mph N/A   Overcast
11:55 AM 50.0 °F - 45.0 °F 83% 29.86 in 7.0 mi NNW 10.4 mph 21.9 mph N/A   Overcast
12:55 PM 52.0 °F - 46.0 °F 80% 29.85 in 10.0 mi NNW 9.2 mph - N/A   Mostly Cloudy
1:55 PM 51.1 °F - 45.0 °F 80% 29.83 in 10.0 mi Variable 5.8 mph 16.1 mph N/A   Overcast
2:55 PM 51.1 °F - 46.0 °F 83% 29.85 in 10.0 mi NW 5.8 mph - N/A   Overcast
3:55 PM 51.1 °F - 46.0 °F 83% 29.88 in 10.0 mi NW 8.1 mph - N/A   Overcast
4:55 PM 50.0 °F - 45.0 °F 83% 29.91 in 10.0 mi NW 8.1 mph - N/A   Overcast
5:55 PM 48.0 °F - 44.1 °F 86% 29.94 in 10.0 mi NW 9.2 mph 17.3 mph N/A   Overcast
6:02 PM 48.2 °F - 44.6 °F 87% 29.94 in 9.0 mi NW 6.9 mph 21.9 mph N/A Rain Light Rain
6:55 PM 46.9 °F - 42.1 °F 83% 29.94 in 10.0 mi NNW 11.5 mph 20.7 mph N/A   Overcast
7:55 PM 46.9 °F - 43.0 °F 86% 29.95 in 10.0 mi NNW 8.1 mph 25.3 mph N/A Rain Light Rain
8:55 PM 46.0 °F 41.9 °F 41.0 °F 83% 29.99 in 10.0 mi NW 8.1 mph 21.9 mph N/A Rain Light Rain
9:55 PM 44.1 °F 39.5 °F 41.0 °F 89% 30.03 in 6.0 mi WNW 8.1 mph 16.1 mph N/A Rain Light Rain
10:55 PM 44.1 °F 38.6 °F 41.0 °F 89% 30.06 in 6.0 mi NW 10.4 mph 17.3 mph N/A Rain Light Rain
11:55 PM 44.1 °F 39.0 °F 39.9 °F 85% 30.04 in 10.0 mi North 9.2 mph 17.3 mph N/A Rain Light Rain